Flag for Vietnam Weather past 2 weeks in Ho Chi Minh, Vietnam

Now
77 °F

Light rain. Partly cloudy.


Feels Like: 78 °F
Forecast: 76 / 88 °F
Wind: 2 mph from North

Location: Ho Chi Minh

Current Time: Oct 23, 2014 at 7:02:43 PM

Latest Report: Oct 23, 2014 at 6:30 PM


Visibility: 5 mi

Pressure: 29.83 "Hg

Humidity: 89%

Dew point: 73 °F

Location of Ho Chi MinhLocation

Historic Weather in Ho Chi Minh — Graph

°F

Ho Chi Minh temperature yesterday

Maximum temperature yesterday: 91 °F (at 11:30 AM)
Minimum temperature yesterday: 75 °F (at 4:30 PM)
Average temperature yesterday: 81 °F

Past Weeks' High & Low Weather Summary

 TemperatureHumidityPressure
High93 °F (Oct 14, 3:00 PM)94% (Oct 9, 10:00 PM)29.95 "Hg (Oct 9, 10:00 PM)
Low75 °F (Oct 9, 10:00 PM)46% (Oct 12, 1:00 PM)29.68 "Hg (Oct 10, 2:30 PM)
Average82 °F78%29.83 "Hg
* Reported Oct 8 6:00 PM — Oct 23 6:00 PM, Ho Chi Minh, Weather by CustomWeather, © 2014

Note: Actual official high and low records may vary slightly from our data, if they occured in-between our weather recording intervals... More about our weather records

Advertising

Ho Chi Minh weather history for previous 24 hours

 ConditionsComfort  
Time TempWeatherWind HumidityBarometerVisibility
6:00 PM
Oct 23
77 °FPartly cloudy.1 mph89%29.83 "HgN/A
5:30 PM77 °FBroken clouds.1 mph89%29.83 "HgN/A
5:00 PM77 °FBroken clouds.3 mph89%29.83 "HgN/A
4:30 PM77 °FBroken clouds.1 mph89%29.80 "HgN/A
4:00 PM77 °FBroken clouds.1 mph89%29.80 "HgN/A
3:00 PM75 °FThunderstorms. Broken clouds.8 mph94%29.80 "Hg4 mi
2:30 PM75 °FStrong thunderstorms. Broken clouds.14 mph94%29.80 "Hg1 mi
2:00 PM79 °FThunderstorms. Broken clouds.14 mph84%29.83 "Hg3 mi
1:30 PM90 °FScattered clouds.5 mph59%29.80 "HgN/A
1:00 PM90 °FScattered clouds.3 mph59%29.80 "HgN/A
12:30 PM91 °FPartly sunny.5 mph59%29.83 "HgN/A
12:00 PM90 °FPartly sunny.7 mph63%29.86 "HgN/A
11:30 AM88 °FPartly sunny.6 mph66%29.86 "HgN/A
11:00 AM88 °FPartly sunny.6 mph66%29.89 "HgN/A
10:30 AM88 °FPartly sunny.8 mph66%29.89 "HgN/A
10:00 AM86 °FPartly sunny.7 mph70%29.92 "HgN/A
9:30 AM84 °FPartly sunny.6 mph79%29.92 "HgN/A
9:00 AM82 °FScattered clouds.6 mph79%29.92 "HgN/A
8:30 AM81 °FScattered clouds.6 mph84%29.89 "HgN/A
8:00 AM81 °FScattered clouds.6 mph84%29.89 "Hg5 mi
7:30 AM79 °FScattered clouds.7 mph89%29.89 "Hg5 mi
7:00 AM77 °FFog.5 mph89%29.89 "Hg3 mi
6:30 AM77 °FFog.3 mph89%29.86 "Hg2 mi
6:00 AM75 °FFog.3 mph94%29.86 "Hg1 mi
5:30 AM75 °FFog.3 mph94%29.83 "Hg3 mi
5:00 AM75 °FFog.2 mph94%29.83 "Hg3 mi
4:30 AM77 °FFog.2 mph89%29.83 "Hg2 mi
4:00 AM77 °FFog.3 mph94%29.83 "Hg2 mi
3:30 AM77 °FFog.5 mph94%29.83 "Hg2 mi
3:00 AM77 °FFog.5 mph94%29.83 "Hg2 mi
2:30 AM77 °FFog.2 mph94%29.83 "Hg2 mi
2:00 AM77 °FFog.2 mph94%29.86 "Hg2 mi
1:30 AM77 °FFog.2 mph94%29.86 "Hg2 mi
1:00 AM77 °FFog.2 mph94%29.86 "Hg2 mi
12:30 AM77 °FFog.3 mph94%29.89 "Hg2 mi
12:00 AM77 °FPartly cloudy.1 mph94%29.89 "Hg4 mi
11:30 PM
Oct 22
77 °FPartly cloudy.1 mph94%29.89 "Hg4 mi
11:00 PM77 °FPartly cloudy.1 mph94%29.89 "Hg5 mi
10:30 PM79 °FPartly cloudy.3 mph89%29.89 "Hg5 mi
10:00 PM79 °FPartly cloudy.2 mph89%29.89 "Hg5 mi
9:30 PM79 °FLight rain. Partly cloudy.1 mph89%29.89 "Hg5 mi
9:00 PM79 °FLight rain. Partly cloudy.3 mph89%29.89 "Hg5 mi
8:30 PM79 °FLight rain. Partly cloudy.3 mph89%29.89 "Hg5 mi
8:00 PM79 °FLight rain. Partly cloudy.1 mph89%29.89 "Hg5 mi
7:30 PM77 °FLight rain. Partly cloudy.3 mph94%29.86 "Hg4 mi
7:00 PM79 °FThunderstorms. Partly cloudy.7 mph89%29.86 "Hg4 mi
Weather by CustomWeather, © 2014

See weather overviewHow to use our weather pages